Flag for Panama Weather past 2 weeks in Colón, Panama

Now
77 °F

Passing clouds.


Feels Like: 78 °F
Forecast: 77 / 87 °F
Wind: No wind

Location: Panama Airport

Current Time: Aug 29, 2014 at 3:46:45 AM

Latest Report: Aug 29, 2014 at 3:00 AM


Visibility: N/A

Pressure: 29.83 "Hg

Humidity: 94%

Dew point: 75 °F

Location of ColónLocation

Historic Weather in Colón — Graph

°F

Colón temperature yesterday

Maximum temperature yesterday: 86 °F (at 12:00 PM)
Minimum temperature yesterday: 75 °F (at 2:00 AM)
Average temperature yesterday: 80 °F

Past Weeks' High & Low Weather Summary

 TemperatureHumidityPressure
High93 °F (Aug 15, 3:00 PM)100% (Aug 16, 7:00 AM)29.92 "Hg (Aug 16, 7:00 AM)
Low73 °F (Aug 20, 2:00 AM)52% (Aug 14, 1:00 PM)29.71 "Hg (Aug 14, 5:00 PM)
Average81 °F84%29.82 "Hg
* Reported Aug 14 3:00 AM — Aug 29 3:00 AM, Colón, Weather by CustomWeather, © 2014

Note: Actual official high and low records may vary slightly from our data, if they occured in-between our weather recording intervals... More about our weather records

Advertising

Colón weather history for previous 24 hours

 ConditionsComfort  
Time TempWeatherWind HumidityBarometerVisibility
3:00 AM
Aug 29
77 °FPassing clouds.No wind94%29.83 "HgN/A
2:00 AM77 °FLight rain. Passing clouds.No wind94%29.83 "Hg6 mi
1:00 AM79 °FPassing clouds.No wind89%29.89 "HgN/A
12:00 AM79 °FPassing clouds.No wind89%29.89 "HgN/A
11:00 PM
Aug 28
79 °FPassing clouds.No wind89%29.86 "HgN/A
10:00 PM79 °FPassing clouds.No wind89%29.86 "HgN/A
9:00 PM82 °FPassing clouds.No wind79%29.83 "HgN/A
8:00 PM82 °FPassing clouds.No wind79%29.83 "HgN/A
7:00 PM81 °FPassing clouds.No wind84%29.80 "HgN/A
6:00 PM84 °FScattered clouds.5 mph74%29.80 "HgN/A
5:00 PM84 °FScattered clouds.5 mph74%29.80 "HgN/A
4:00 PM84 °FScattered clouds.5 mph70%29.77 "HgN/A
1:00 PM86 °FScattered clouds.6 mph66%29.86 "HgN/A
12:00 PM86 °FScattered clouds.No wind70%29.86 "HgN/A
11:00 AM84 °FScattered clouds.No wind79%29.89 "HgN/A
10:00 AM84 °FScattered clouds.No wind74%29.89 "HgN/A
9:00 AM81 °FScattered clouds.No wind84%29.89 "HgN/A
8:00 AM79 °FScattered clouds.No wind89%29.89 "Hg6 mi
7:00 AM75 °FScattered clouds.No wind94%29.86 "Hg6 mi
6:00 AM75 °FPassing clouds.No wind94%29.86 "Hg6 mi
5:00 AM75 °FPassing clouds.No wind94%29.86 "HgN/A
4:00 AM75 °FPassing clouds.No wind94%29.86 "HgN/A
3:00 AM75 °FPassing clouds.No wind94%29.86 "HgN/A
Weather by CustomWeather, © 2014

See weather overviewHow to use our weather pages